Dewpoint
55 54 54 54 54 54 54 54 54 55 55 55 55 55 55 55 56 56 56 56 56 56 56 56 56 57 55 55 55 55 56 51 45 43 42 35 47 65 60 60 60 63 71 61 58 53 50 49 56 62 60 59 57 59 62 63 63 64 59 55 54 54 55 56 56 59 59 60 63 66 66 65 65 67 67 68 66 66 66 64 65 62 61 61 61 61 62 63
55 54 53 54 54 54 54 54 54 55 54 55 55 55 55 55 55 55 56 56 56 56 56 56 56 57 57 55 55 55 54 51 44 41 37 44 56 62 61 65 61 67 71 56 52 47 45 47 57 61 59 58 60 59 62 61 62 61 58 57 52 54 55 58 58 59 58 59 65 65 67 65 65 67 67 65 65 65 63 64 62 61 62 62 61 62 62 63
54 53 53 54 54 54 54 54 54 55 54 55 55 55 55 55 55 55 55 56 55 56 56 55 56 57 57 55 55 57 54 46 47 43 41 63 60 60 63 65 64 72 61 54 48 42 42 46 57 59 59 57 59 59 61 59 60 59 59 53 52 55 55 57 58 61 59 63 63 65 65 65 66 67 66 65 62 63 63 60 60 61 61 61 61 61 62 63
54 54 55 55 54 55 54 54 54 54 54 55 55 55 55 55 55 55 55 55 55 56 55 55 56 57 56 56 55 56 52 48 36 36 53 64 63 63 65 65 67 71 57 51 45 38 37 47 55 59 58 55 57 58 57 58 56 58 58 54 55 56 54 53 56 58 60 64 64 65 66 65 66 67 65 64 62 63 63 60 59 60 61 60 60 61 61 62
54 54 55 55 54 54 54 54 54 54 55 55 55 55 55 55 55 55 55 55 55 55 55 55 56 57 57 56 57 55 51 22 35 45 64 65 62 64 67 66 70 62 51 49 43 37 37 44 52 56 56 53 54 55 56 58 57 56 56 54 54 55 52 51 51 56 57 64 65 65 64 64 67 67 64 64 60 62 66 60 59 59 60 60 60 60 61 60
54 54 55 55 54 54 54 54 54 55 54 54 55 55 55 55 55 55 55 55 55 55 55 55 56 57 57 58 55 54 44 2 30 54 68 65 64 66 67 68 71 55 50 47 41 38 36 37 45 50 51 51 53 53 54 55 57 53 52 52 52 51 50 52 49 55 56 63 64 65 64 66 65 66 64 61 65 66 64 61 61 60 60 60 60 59 59 60
54 54 55 54 54 54 54 54 54 54 54 54 55 54 55 55 55 55 55 55 55 55 55 55 56 57 58 58 52 49 43 20 31 62 66 63 65 65 67 67 70 52 45 42 41 38 36 35 37 40 43 48 51 53 54 54 56 55 53 51 50 50 49 48 45 50 51 59 64 65 63 65 65 63 64 63 66 67 67 63 62 61 61 61 60 60 59 60
54 54 54 54 54 54 54 54 54 54 54 55 54 55 55 55 55 55 55 55 55 55 55 55 56 58 59 53 49 44 29 12 49 61 65 64 58 60 62 57 59 46 37 38 39 36 34 33 30 31 37 39 46 51 53 51 54 53 51 50 49 48 51 45 42 45 51 57 64 63 62 63 63 64 64 63 64 65 65 63 63 62 61 61 61 61 61 61
54 54 54 54 54 53 53 54 54 54 54 54 54 54 54 55 54 55 55 55 55 55 55 55 56 57 59 54 37 22 8 50 53 57 56 52 53 57 50 54 52 38 35 36 35 34 33 31 27 29 29 36 47 47 53 50 49 52 52 51 48 44 41 45 46 46 53 59 63 62 60 62 62 65 62 64 63 66 65 65 63 62 61 60 60 61 61 61
54 54 53 53 53 53 53 54 54 54 54 54 54 54 54 54 54 55 55 55 55 55 55 56 56 58 57 51 37 18 36 55 55 50 43 52 54 48 47 49 47 38 34 33 32 32 30 28 26 33 41 33 45 42 51 49 46 49 48 45 42 39 47 50 46 51 54 60 61 60 60 63 63 60 60 62 63 63 64 63 63 62 61 61 61 61 61 61
54 53 53 53 53 54 53 54 54 54 54 54 54 54 54 54 55 55 55 55 55 55 56 56 57 58 52 45 35 18 47 59 52 44 49 57 55 47 45 47 46 36 34 33 31 33 29 31 31 35 37 35 40 46 51 49 48 44 42 41 41 41 54 52 53 55 56 59 61 60 61 61 63 59 61 62 63 63 63 63 65 63 62 62 62 62 62 62
53 53 53 53 53 53 54 54 54 54 54 54 54 54 54 55 55 56 56 55 55 55 56 57 58 56 48 40 26 35 51 57 49 45 53 55 52 49 45 44 43 36 33 32 32 32 31 34 37 32 23 42 34 46 46 48 44 43 41 40 38 43 53 54 54 56 58 59 60 61 61 60 60 58 62 61 62 62 63 64 65 63 62 62 62 62 64 63
53 53 53 53 53 53 54 54 54 54 54 54 54 54 54 55 56 57 56 55 55 56 56 57 59 54 49 37 25 43 50 53 45 47 48 50 51 48 41 40 39 35 31 28 29 30 32 30 33 26 38 35 39 36 41 44 44 43 42 40 36 35 51 55 57 56 58 58 60 59 56 56 59 57 60 62 62 62 62 63 63 63 62 62 62 62 62 62
53 53 53 53 53 53 54 54 54 54 53 54 54 53 54 54 57 57 55 54 56 56 57 58 58 50 47 31 38 43 42 52 47 46 46 47 45 44 42 38 37 36 35 31 32 33 33 34 33 31 39 36 38 43 39 41 42 41 42 38 36 34 47 54 56 57 57 58 60 59 56 53 61 58 59 62 62 61 62 62 62 62 62 62 62 62 62 62
54 53 53 53 53 53 54 54 54 53 53 53 53 53 54 54 58 56 56 56 57 57 58 60 56 48 43 33 44 49 58 50 43 42 42 40 42 40 39 39 36 34 32 31 31 33 33 34 33 35 31 37 40 40 37 37 38 40 37 37 35 33 46 55 57 56 56 58 59 58 57 57 56 60 59 62 62 60 61 62 62 61 61 62 62 62 61 61
54 54 54 54 53 54 54 54 54 53 53 53 52 53 54 58 57 57 56 57 58 59 59 53 49 50 41 26 47 58 52 46 41 41 42 41 40 39 40 38 38 37 34 34 32 31 32 33 28 25 33 38 37 33 32 35 36 39 39 38 35 32 42 48 53 56 57 56 58 58 56 53 58 60 60 61 61 60 61 61 62 64 61 61 61 61 61 62
54 54 54 54 54 53 54 53 54 54 53 53 52 53 55 60 58 58 59 59 58 58 54 49 47 46 43 41 47 49 41 41 46 42 43 43 40 43 40 39 37 36 36 35 33 29 31 31 32 34 35 34 31 33 33 32 32 34 38 37 31 33 35 40 53 56 56 57 54 57 57 53 54 59 61 60 61 61 62 62 61 64 62 61 61 60 60 62
54 54 54 54 54 54 54 53 54 54 53 52 52 52 52 58 59 60 60 59 55 53 52 49 43 43 33 34 31 34 34 34 36 45 46 48 46 43 41 38 38 37 37 34 34 27 29 29 31 24 30 36 37 34 32 30 30 31 36 36 30 30 33 39 40 53 55 56 55 55 53 54 58 58 60 60 60 60 61 62 61 62 63 62 60 60 60 62
54 54 54 54 54 54 53 53 53 53 52 52 53 54 55 56 55 52 48 51 47 43 30 38 37 25 22 28 33 31 31 31 42 48 47 46 46 44 42 41 39 37 34 31 30 28 26 27 28 27 27 32 35 33 31 30 31 33 35 34 32 30 30 32 45 53 53 52 51 53 52 50 54 58 59 59 59 60 61 62 62 62 62 63 62 60 61 62
54 54 54 54 54 54 53 53 53 52 52 51 51 54 51 48 47 42 44 44 38 30 26 28 31 31 30 31 31 26 30 27 39 46 46 46 44 42 40 36 37 34 32 27 28 27 22 23 21 29 29 32 34 32 32 35 35 33 35 35 31 29 27 30 28 46 53 51 49 49 48 47 50 56 58 59 60 60 60 61 62 62 62 62 62 61 62 63
54 54 54 54 54 54 54 53 53 52 52 50 49 46 34 27 23 22 27 30 30 29 26 24 24 25 27 30 28 26 21 19 24 39 44 45 40 40 38 36 31 30 28 26 26 26 20 20 19 24 30 33 35 36 39 36 34 33 33 32 30 30 27 28 27 33 48 48 46 44 45 45 46 51 55 58 58 58 59 60 61 61 62 62 63 63 63 63
54 54 54 54 53 53 53 53 52 52 51 51 49 40 31 35 36 36 32 25 26 26 26 26 30 27 26 28 29 29 24 15 17 36 45 42 37 34 38 36 32 29 28 27 26 24 19 16 19 22 30 35 38 38 39 37 35 34 32 33 30 31 27 27 26 25 38 39 40 41 38 38 38 42 51 54 56 57 57 58 60 62 62 62 62 63 63 62
54 54 54 54 53 53 52 52 51 51 52 48 42 34 36 38 39 41 35 29 24 27 25 24 23 22 24 26 27 28 20 14 22 37 40 42 33 31 36 36 31 28 28 26 24 22 17 15 19 28 37 40 38 38 38 37 35 34 32 31 30 29 27 26 29 26 38 37 34 38 32 33 35 38 45 50 53 55 56 56 59 63 62 62 61 63 63 63
54 54 54 53 53 52 52 51 51 52 51 45 38 37 39 40 40 36 32 27 23 24 21 22 23 22 22 20 24 24 18 12 12 21 36 38 28 25 32 34 32 29 27 26 26 21 16 16 24 36 38 38 36 34 34 34 32 33 32 31 30 29 28 26 25 29 32 31 30 32 30 30 32 32 36 46 52 52 54 56 58 63 63 62 62 62 63 63
54 54 54 54 53 52 51 50 48 42 45 42 37 38 40 44 45 39 31 29 22 20 25 23 24 22 18 19 21 22 12 10 9 21 31 30 25 21 25 30 31 30 26 26 26 23 20 30 33 36 36 34 34 34 32 31 29 31 33 32 29 31 29 27 27 25 25 25 28 27 33 31 33 30 31 42 48 51 54 57 58 61 63 63 63 62 63 62
54 54 54 53 53 52 50 48 39 42 42 36 37 39 42 43 42 43 33 27 15 15 19 18 21 19 20 16 16 14 9 9 14 21 24 25 24 20 24 26 29 28 27 27 24 26 24 35 34 33 30 31 32 33 33 32 28 28 31 34 34 33 31 30 28 27 26 27 28 27 28 29 34 37 46 50 51 53 55 56 56 60 62 62 63 63 62 61
54 54 53 53 52 51 50 36 43 41 36 36 38 41 43 42 51 41 32 19 12 15 14 15 16 15 14 14 11 7 5 9 19 26 28 24 22 24 20 21 25 31 32 29 28 24 31 36 32 30 30 32 34 32 32 32 30 29 32 34 34 34 32 31 30 28 28 26 23 25 25 28 27 48 51 49 53 54 56 57 58 57 62 61 62 62 63 61
54 53 52 52 51 51 50 46 43 38 35 39 42 43 44 48 47 40 30 10 13 15 11 15 13 15 12 12 8 5 13 14 12 16 18 20 23 20 21 22 22 29 33 31 24 27 32 34 33 34 35 35 34 32 36 35 29 26 32 32 32 32 32 31 30 29 28 26 26 21 22 27 29 50 51 50 52 53 55 56 58 60 61 61 61 61 62 62
53 53 52 52 51 49 51 49 47 36 38 41 44 45 42 48 39 30 26 15 13 11 14 12 13 13 10 9 7 9 11 14 13 16 17 19 18 18 19 23 22 25 32 30 20 29 30 32 32 34 35 35 36 35 35 35 31 32 32 31 30 29 29 29 29 28 29 29 28 26 22 26 28 42 45 49 50 51 53 53 53 55 59 60 61 61 61 63
53 52 52 51 51 50 51 50 43 42 43 44 46 49 41 39 32 26 15 15 15 7 11 12 12 13 9 7 8 7 11 15 15 16 17 17 17 18 18 22 25 28 29 29 26 23 27 32 33 33 33 28 32 33 35 35 34 32 31 27 26 27 28 30 29 30 29 27 29 23 23 23 29 41 44 46 48 51 51 52 53 54 53 55 61 62 61 61
52 51 51 51 51 47 46 43 39 43 45 49 48 45 39 34 29 22 11 14 16 10 11 12 10 12 8 8 8 13 15 15 15 16 15 16 16 17 20 22 24 25 27 25 25 22 24 27 29 21 25 27 27 26 29 32 33 31 27 24 23 26 28 30 28 31 27 25 26 22 20 23 25 43 44 49 51 51 51 52 54 54 55 55 57 60 61 61
51 50 51 52 51 50 43 38 46 45 48 49 47 40 31 26 22 18 14 16 13 13 12 9 11 11 8 8 10 9 12 15 16 15 14 14 16 16 19 21 23 21 22 22 21 19 18 22 18 18 22 19 27 26 23 27 30 30 26 26 22 26 28 23 25 24 23 21 22 19 18 25 27 43 43 44 48 51 53 53 54 55 55 57 55 58 62 62
50 50 49 51 51 49 47 48 50 51 51 48 44 34 29 24 18 19 13 15 14 18 12 15 10 9 10 11 13 15 15 13 16 15 14 14 15 17 18 19 19 18 17 18 19 14 12 13 14 15 16 19 18 20 17 22 27 27 26 25 24 24 21 22 22 24 21 19 18 19 20 24 40 42 44 45 50 52 52 54 55 56 57 58 56 57 59 62
50 50 55 53 50 48 46 54 52 52 48 47 42 30 28 14 17 22 15 15 14 15 13 11 11 9 8 9 13 13 14 17 15 15 15 16 13 15 16 17 19 17 17 16 16 11 12 12 12 12 12 16 16 15 14 18 25 25 25 23 24 27 20 22 22 20 18 19 19 22 20 26 33 42 42 46 51 53 53 53 56 57 57 58 58 57 59 61
49 51 54 54 52 50 49 50 54 53 49 39 32 22 16 19 18 17 15 16 15 13 12 14 10 10 12 12 15 17 15 15 18 16 14 14 16 18 18 17 20 20 18 15 16 16 11 11 13 15 16 16 16 17 17 17 22 23 24 23 22 24 24 18 20 16 17 17 19 22 19 27 36 45 46 50 51 52 52 53 55 56 56 57 57 58 58 59
50 54 52 47 36 39 48 51 52 50 44 32 23 21 16 19 16 16 16 19 16 14 11 12 8 7 7 12 15 15 17 15 16 16 16 18 20 19 20 19 20 21 20 18 16 16 17 13 13 15 16 16 16 18 17 17 18 21 21 21 21 23 22 25 24 19 21 18 21 22 34 38 39 42 46 48 50 51 52 52 53 55 56 57 57 58 58 59
50 49 37 34 33 41 50 50 48 48 39 28 20 21 20 19 19 19 21 17 16 16 14 9 12 11 7 9 12 14 15 15 16 14 16 18 16 22 22 20 22 21 21 22 17 17 17 12 13 14 15 16 17 17 16 17 18 21 19 20 22 22 22 26 19 25 18 15 20 17 27 36 33 37 45 47 48 49 51 52 53 55 56 56 56 58 59 59
48 43 41 29 31 38 50 51 47 43 33 23 23 26 20 18 21 21 21 19 17 16 14 12 14 17 11 12 12 12 15 12 15 16 16 18 16 23 23 22 20 22 22 20 20 18 18 12 12 14 15 16 17 16 15 16 18 16 16 21 18 21 22 24 26 17 16 17 25 20 22 34 31 40 43 46 47 48 51 53 53 53 55 56 57 58 59 60
49 38 30 30 30 31 42 52 46 37 28 23 24 23 20 19 21 21 22 20 19 17 16 16 12 17 14 12 16 17 15 10 15 15 15 18 18 21 23 25 22 22 22 22 19 18 17 15 12 14 15 15 16 15 17 15 16 17 18 20 20 24 21 21 22 25 21 16 24 25 29 33 40 39 41 44 48 49 50 51 52 53 54 55 56 57 58 59
30 31 26 31 30 32 50 43 35 28 25 23 22 20 23 19 21 22 22 22 20 22 17 17 18 16 20 18 15 16 19 16 16 18 18 19 17 20 22 24 25 25 22 22 20 19 19 23 14 12 15 15 16 16 15 17 15 16 17 18 19 21 21 23 18 19 18 18 24 28 23 38 41 41 42 46 48 49 50 51 52 52 54 54 57 58 59 59
33 28 27 32 30 35 33 30 25 23 23 22 23 22 22 22 21 21 22 22 21 23 21 20 19 16 18 18 18 19 19 19 19 18 19 21 21 19 22 25 27 25 26 23 19 23 25 18 14 13 13 15 15 17 17 16 17 16 15 17 16 19 20 22 24 21 21 23 22 25 25 39 40 42 44 45 48 49 50 51 52 52 53 56 56 58 60 60
30 25 26 32 33 32 28 24 24 25 21 21 19 22 24 31 21 21 21 22 22 21 22 22 23 22 22 21 20 20 21 20 20 20 21 18 22 22 22 26 27 28 26 18 20 21 31 26 18 15 14 14 16 18 20 17 17 17 17 17 17 17 22 22 20 21 20 20 27 23 33 38 43 45 45 46 47 48 49 50 51 51 53 54 55 57 59 61
27 26 33 33 34 30 24 24 29 27 22 21 22 22 23 22 21 21 21 22 19 22 21 22 23 21 22 22 22 21 22 23 23 20 19 19 20 22 22 24 28 26 27 18 25 19 32 23 21 18 20 18 19 18 19 18 18 17 17 18 17 17 18 19 24 31 22 21 21 27 35 38 41 48 46 46 48 47 49 49 50 50 51 53 54 55 57 59
29 28 28 30 33 30 27 23 23 23 23 23 22 21 22 22 23 22 22 23 22 22 22 21 21 23 23 23 22 22 25 22 23 21 22 24 19 22 20 22 27 24 27 22 31 19 23 25 29 23 21 18 17 20 17 16 17 17 16 18 19 19 21 22 25 32 29 24 24 22 31 36 40 47 46 46 46 46 47 47 48 49 50 50 51 53 54 58
30 30 27 27 31 29 24 24 24 23 23 23 23 22 20 21 22 23 23 23 23 23 22 22 23 21 21 23 22 22 23 22 23 24 20 20 18 20 20 21 25 26 29 31 36 26 26 26 31 19 17 16 18 17 17 17 17 17 17 16 19 18 22 27 23 29 23 36 39 28 29 39 44 46 45 45 46 48 47 47 47 48 50 50 50 50 53 54
27 32 26 25 28 26 28 29 25 24 25 26 24 22 20 20 20 22 22 22 23 24 23 22 22 21 21 22 23 22 23 24 23 24 23 20 19 19 20 20 22 26 34 35 32 24 26 26 32 30 25 21 27 30 25 24 17 17 15 15 15 16 19 24 29 29 22 32 34 36 36 41 42 42 43 43 45 46 46 47 47 47 48 49 51 51 51 53
31 29 32 30 27 27 26 28 27 27 26 28 27 26 22 21 21 20 22 20 23 23 23 24 23 23 23 22 25 24 23 25 28 28 25 23 24 20 19 19 20 28 35 26 27 25 29 22 23 29 27 25 23 21 18 21 19 16 14 13 14 17 20 24 25 23 37 29 28 37 43 40 40 42 43 44 45 47 47 48 47 47 47 47 48 51 52 50
31 33 35 35 33 28 29 26 27 25 26 26 26 28 24 23 23 23 21 23 23 24 22 26 25 24 26 26 26 27 30 30 29 27 28 28 23 22 19 18 18 26 25 18 20 27 24 20 20 19 19 20 19 18 18 17 17 17 14 13 15 15 20 23 25 25 31 31 28 36 42 41 40 41 43 46 47 47 46 47 48 48 46 47 49 48 47 47
34 33 31 35 31 29 29 29 29 26 27 26 29 28 25 21 21 23 25 22 23 24 25 27 25 24 23 25 29 28 32 24 27 34 31 28 29 27 21 23 18 17 18 20 20 33 28 23 22 21 21 19 18 18 16 15 14 12 13 14 15 15 17 18 17 20 26 35 33 36 43 38 39 40 42 45 47 47 47 48 49 51 47 49 47 47 46 46
37 36 32 33 34 31 30 28 28 26 26 34 31 29 26 24 23 23 25 26 25 24 22 25 24 24 25 25 30 26 29 30 29 28 31 28 23 28 26 28 24 22 20 21 24 27 30 25 25 18 20 18 17 15 17 12 12 13 11 10 11 13 14 15 14 20 27 30 30 36 41 41 41 44 44 46 47 45 47 47 47 51 50 48 47 46 47 48
42 46 51 35 31 34 34 31 31 30 29 30 29 30 27 26 28 27 29 28 26 28 25 24 24 26 25 27 28 27 26 27 27 27 26 28 26 27 30 28 25 27 25 26 25 25 24 29 22 21 16 15 11 13 8 14 7 7 12 12 11 10 15 13 20 21 25 30 33 34 36 41 43 42 43 44 45 46 47 48 48 49 50 50 49 47 48 49
49 48 49 42 32 36 29 28 29 31 28 34 34 33 29 29 29 27 28 28 27 28 27 24 25 25 28 29 29 28 27 26 26 26 25 21 22 24 25 25 27 31 29 27 28 25 26 24 21 16 13 16 15 8 12 6 11 6 9 12 15 17 23 21 24 25 27 27 29 30 31 43 43 44 43 44 40 45 47 47 47 48 51 50 51 49 48 48